Regional Weather Roundup
Issued by NWS

Home | Current Version | Previous Version | Text Only | Print | Product List | Glossary Off
Versions: 1 2 3 4 5 6 7 8 9 10 11 12 13 14 15 16 17 18 19 20 21 22 23 24 25 26 27 28 29 30 31 32 33 34 35 36 37 38 39 40 41 42 43 44 45 46 47 48 49 50

000
ASUS45 KCYS 200910
RWRWY

WYOMING REGIONAL WEATHER ROUNDUP
NATIONAL WEATHER SERVICE CHEYENNE WY
200 AM MST SAT DEC 20 2014

NOTE:  "FAIR" INDICATES FEW OR NO CLOUDS BELOW 12,000 FEET
WITH NO SIGNIFICANT WEATHER AND/OR OBSTRUCTIONS TO VISIBILITY.

WYZ001-201000-
YELLOWSTONE NATIONAL PARK

CITY           SKY/WX    TMP DP  RH WIND       PRES   REMARKS
LK YELLOWSTONE   N/A     25  20  81 VRB6      30.02R WCI  18
W YELLOWSTONE  NOT AVBL

$$
WYZ002>013-054>058-071-098>099-201000-
NORTHERN WYOMING

CITY           SKY/WX    TMP DP  RH WIND       PRES   REMARKS
JACKSON        CLOUDY    30  28  93 S3        30.03S
CODY           FAIR      37  25  60 SW10G16   29.91R WCI  30
GREYBULL       MOCLDY    15  13  91 W5        29.96F WCI   8
WORLAND        FAIR      12   9  87 CALM      29.96S
SHERIDAN       CLOUDY    29  23  78 SW8       29.89F WCI  21
BUFFALO        FAIR      35  21  56 W3        29.90S
GILLETTE       CLOUDY    34  23  64 VRB3      29.90R
HULETT           N/A    N/A N/A N/A MISG        N/A
NEWCASTLE      FAIR      23  19  86 CALM      29.94S

$$
WYZ014>020-022>026-101>103-201000-
CENTRAL WYOMING

CITY           SKY/WX    TMP DP  RH WIND       PRES   REMARKS
BIG PINEY      FAIR      19  16  88 E8        30.05F WCI   9
PINEDALE       CLOUDY    23  23 100 CALM      30.06S
DUBOIS         NOT AVBL
LANDER         FAIR      11   6  81 CALM      29.96F
RIVERTON       FAIR       9   4  80 CALM      29.97F
CASPER         MOCLDY    31  23  72 SW16      29.96F WCI  20
DOUGLAS        FAIR      38  23  55 W10G28    29.94F WCI  31

$$
WYZ021-027>030-104>119-201000-
SOUTHERN WYOMING

CITY           SKY/WX    TMP DP  RH WIND       PRES   REMARKS
EVANSTON       CLOUDY    29  24  82 SW10      30.08S WCI  20
KEMMERER       FLURRIES  28  27  93 SW6       30.07F WCI  22
FORT BRIDGER   CLOUDY    32  25  76 W9        30.10F WCI  24
ROCK SPRINGS   CLOUDY    27  20  75 SW9       30.08F WCI  18
DIXON          LGT SNOW  27  23  86 SW6       30.18R WCI  20
RAWLINS        FAIR      28  20  71 W14       30.05F WCI  17
SARATOGA       CLOUDY    27  21  80 E5        30.08F WCI  21
LARAMIE        FAIR      27  16  63 W15       30.02S WCI  15
CHEYENNE       FAIR      34  17  50 W12       29.96F WCI  25
TORRINGTON     FAIR     N/A N/A N/A CALM      29.95S
PINE BLUFFS    FAIR      21  16  79 S6        29.98S WCI  14

$$


USA.gov is the U.S. government's official web portal to all federal, state and local government web resources and services.